NANOSAT 1B

Satellite information

Favourite Embed

Satellite Type and Status

PAYLOADIN ORBIT

Key statistics

Satellite NANOSAT 1B at a glance.

Uptime

5929

Days in orbit

Revolutions

≈ 14.9

Per day

Orbit

SSO

Sun Synchronous Orbit

Inclination

98.1

Latest

Satellite identification and parameters

Extended collection of information and parameters for NANOSAT 1B.

Object identification

Identified? True

Debris? False

Object name: NANOSAT 1B

International designator: 2009-041E

Object number (NORAD): 35685

Object ID (CCSDS): 35685

Country: SPAIN (SPN)

Current information (Y/N): Y

RCS size: MEDIUM

Orbital parameters

Period: 96.523 minutes

Inclination: 98.1009 deg

SMA: 6970.253 km

Apoapsis: 626.847 km

Periapsis: 557.389 km

RAAN: 41.519 deg

Eccentricy: 0.0049825

Argument of periapsis: 228.1127 deg

Mean anomaly: 131.5836 deg

Mean motion: 14.9186649 rev/day

Mean motion (dot): 0.00003644 rev/day2

B* drag term: 0.00035833 1/REarth

Two-line elements (TLE)

Creation date: Oct. 21, 2025, 11:56 p.m.

Reference frame: TEME

Reference center: EARTH

Epoch: Oct. 21, 2025, 7:52 p.m. UTC

TLE line 0: 0 NANOSAT 1B

TLE line 1: 1 35685U 09041E 25294.82834244 .00003644 00000-0 35833-3 0 9990

TLE line 2: 2 35685 98.1009 41.5190 0049825 228.1127 131.5836 14.91866490878869

Live tracking on map

Real-time ground track for satellite NANOSAT 1B.

In-orbit conjunctions

There are no conjunctions computed for NANOSAT 1B, at the moment. Check back to stay up to date, as we update our databases every day.

Go to all conjunctions

Associated space launch

Emirati Earth observation satellite. Launched with 5 secondary payloads.

NANOSAT 1B was lifted into orbit during the mission ‘Dnepr | DubaiSat 1’, on board a Dnepr space rocket.

The launch took place on July 29, 2009, 6:46 p.m. from 109/95.

For more information about the launch, click the button.

Launch to space Dnepr | DubaiSat 1
Dnepr | DubaiSat 1

Agency: N/A

Status: Launch Successful

Launch date: July 29, 2009, 6:46 p.m. UTC

Rocket: Dnepr

Launch pad: 109/95

Location: Baikonur Cosmodrome, Republic of Kazakhstan

...

Latest news about this satellite

There are no fresh news available about this satellite. Check back as we update our databases every day.


Newsletter sign-up

Weekly statistics, charts and insights to help you stay on top of the space industry.